Погода в Злихе

Погода в Злихе : погода сейчас, прогноз погоды и архив. Всё, что Вы хотите узнать о погоде в Злихе!

Поиск расширенной информации на нашем сайте:

Другие новости

Новости СМИ2

Главная страница сайта

Новости сайта

03.07.2017

Напоминаем, что на нашем специализированном сайте Метеоцентр.Азия вы можете получить высокодетализированные автоматические прогнозы погоды по пунктам России, СНГ и мира в авиационном формате (включающие направление и скорость ветра, видимость, явления погоды, количество и форму облачности, нижнюю и верхнюю границу облачности).


Погода в Злихе - сегодня

Время (UTC), дата Ветер
(°,м/с) 
Видим.   Явления Облачность Т
(°С)
Тd
(°С)
f(%) Тe
(°С)
Pmin
(гПа)
dP
(гПа)
Po
(мм)
O2
(г/м3)
Тmin Tmax R s Состояние
почвы
06 10.12.17 230 (ЮЗ) 20000 м  {снег}  10/10 600 м 
[Ns]
-4.6 -9.8 67 -10  1034.2  1.1  762  313  -0.4    0.5     
09 10.12.17 230 (ЮЗ) 20000 м    10/10 600 м 
[Ns]
-4.2 -9.7 65 -9  1034  -0.2  762  313           
12 10.12.17 230 (ЮЗ) 20000 м    10/10 600 м 
[Sc]
-5.4 -10.5 67 -9  1034.4  0.3  762  314           
15 10.12.17 230 (ЮЗ) н/о    10/10 600 м 
[Sc]
-6 -10.4 71 -10  1034.6  0.2  762  315    -4  0.0     
18 10.12.17 270 (З) н/о  слаб. снег  10/10 600 м 
[Ns]
-6.4 -10.9 70 -12  1033.9  -0.7  762  315    -4  0.0     
21 10.12.17 270 (З) н/о  слаб. снег  10/10 600 м 
[Ns]
-6.8 -11 72 -13  1033.4  -0.5  762  316           
00 11.12.17 230 (ЮЗ) н/о  {снег}  10/10 600 м 
[Ns]
-6 -9.9 74 -6  1033  -0.4  761  315           
03 11.12.17 320 (СЗ) 20000 м    10/10 600 м 
[Ns]
-5.6 -10.7 67 -8  1033.9  -0.9  762  314  -7    0.2  995  сухой снег
50-90% 
06 11.12.17 тихо ()   10 км  слаб. снег  10/10 600 м 
[Ns]
-5.4 -10.5 67 -5  1034.7  0.8  763  314  -0.7    0.2     
09 11.12.17 360 (С) 20000 м  {снег}  9/9 600 м 
[Sc]
-4.6 -12.9 52 -7  1033.5  -1.1  762  313           
12 11.12.17 090 (В) 20000 м    9/9 600 м 
[Sc]
-5.4 -12.4 58 -7  1033.4  -0.2  762  314           
15 11.12.17 050 (СВ) н/о    10/10 600 м 
[Sc]
-6 -12.7 59 -9  1034.2  0.8  762  315    -4.4       
18 11.12.17 050 (СВ) н/о    9/9 600 м 
[Sc]
-7.4 -12.3 68 -10  1033.9  -0.5  762  317    -4.4  0.0     
21 11.12.17 050 (СВ) н/о    9/9 600 м 
[Sc]
-7.5 -11.9 71 -10  1033  -0.9  761  316           
00 12.12.17 050 (СВ) н/о    9/9 600 м 
[Sc]
-7.2 -12 69 -10  1032.4  -0.6  761  316           
03 12.12.17 050 (СВ) 20000 м    10/10 600 м 
[Sc]
-7.4 -12.3 68 -10  1033.6  1.2  762  317        <0.5  мокрый или
старый снег
10-40% 
06 12.12.17 070 (В) 20000 м    10/10 600 м 
[Sc]
-7 -12.2 66 -11  1034.2  0.8  762  316  -7.6         
09 12.12.17 050 (СВ) 20000 м    10/10 600 м 
[Sc]
-6.2 -12.6 60 -8  1034  -0.2  762  315           
12 12.12.17 050 (СВ) 20000 м    10/10 600 м 
[Sc]
-6.4 -12.4 62 -10  1034.9  0.9  763  316           
15 12.12.17 070 (В) н/о    10/0 
[Sc]
-7 -12.2 66 -8  1036.2  1.2  764  317    -5.8       
18 12.12.17 050 (СВ) н/о    9/9 600 м 
[Sc]
-9.2 -13.2 73 -9  1037.1  0.7  764  320    -5.8       
21 12.12.17 070 (В) н/о    9/9 600 м 
[Sc]
-10.2 -13.9 74 -10  1037.4  0.2  764  321           
00 13.12.17 050 (СВ) н/о    4/4 600 м 
[Sc]
-15.6 -19 75 -16  1038.2  0.4  765  328           
03 13.12.17 050 (СВ) 20000 м    9/9 600 м 
[Sc]
-16 -19.4 75 -18  1028.4  0.2  765  329        мокрый или
старый снег
10-40% 
06 13.12.17 050 (СВ) 10 км  слаб. снег  10/10 600 м 
[Ns]
-11.6 -15.1 75 -14  1038.3  0.2  765  323  -16.2         
Время (UTC), дата Ветер
(°,м/с) 
Видим.   Явления Облачность Т
(°С)
Тd
(°С)
f(%) Тe
(°С)
Pmin
(гПа)
dP
(гПа)
Po
(мм)
O2
(г/м3)
Тmin Tmax R s Состояние
почвы

Для получения пояснительной информации подведите курсор к названию столбца.

ПОГОДА в Злихе - архив

Всё, что Вы хотите узнать о погоде в Злихе - удобно и подробно!

Выберите нужную дату (начиная с 1 января 2015* года) и нажмите кнопку "Найти".
Будут отображены архивные сводки погоды по пункту Злиха, начиная с указанной даты.


Отображать данные в формате CSV (для использования в таблицах Excel)


Внимание! Наш архив погоды предназначен исключительно для личного некоммерческого использования в познавательных целях. Если Вам необходимы официальные справки о состоянии погоды (для производственных, юридических, коммерческих и т.п. целей), обращайтесь в органы Росгидромета.

*Примечание: данная дата относится к архиву по метеостанциям СССР (Россия, СНГ, Балтия).
Архив по метеостанциям Зарубежной Европы и Азии (кроме Китая) хранится 10 дней, по другим регионам земного шара (Китай, Африка, Америка, Австралия, Океания) - 1 день.

Злиха - район местоположения метеостанции


Название, широта, долгота, высота метеостанции:
Злиха 45.2°ш. 67.1°д. 138 м над ур. моря [Казахстан]

Дополнительная информация

В oтличие oт бoльшинства пoгoдных сайтoв мы публикуем пoдрoбную метеoинфoрмацию в детальнoм прoфессиoнальнoм фoрмате.

Характеристики температуры и влажнoсти вoздуха измеряются на высoте 2 м в тени вдали oт зданий и деревьев.
Скoрoсть ветра измеряется на высoте 10 м (на урoвне рoста челoвека скoрoсть ветра ниже в 1.5-2 раза). Если метеoстанция нахoдится в гoрoде или в лесу, тo скoрoсть ветра занижена на 2-4 м/с пo сравнению с oткрытым местoм. Скoрoсть ветра над акватoриями крупных рек и oзёр, а также на вершинах хoлмoв на 2-5 м/с выше, чем в oбычных услoвиях.
Атмoсфернoе давление в разных тoчках местнoсти мoжет значительнo oтличаться oт давления на метеoстанции, в зависимoсти oт услoвий рельефа (при пoдъёме на 10 м давление пoнижается примернo на 1 мм рт.ст.).